Time,TemperatureF,DewpointF,PressureIn,WindDirection,WindDirectionDegrees,WindSpeedMPH,WindSpeedGustMPH,Humidity,HourlyPrecipIn,Conditions,Clouds,dailyrainin,SoftwareType,DateUTC
2013-10-23 00:00:00,42.3,-99.9,-100.00,SW,225,0.0,5.0,-999,0.00,,,-99.99,WeatherLink 5.4,2013-10-23 04:00:00,
2013-10-23 00:30:00,42.5,-99.9,-100.00,WSW,247,1.0,8.0,-999,0.00,,,-99.99,WeatherLink 5.4,2013-10-23 04:30:00,
2013-10-23 01:00:00,43.0,-99.9,-100.00,WSW,247,3.0,10.0,-999,0.00,,,-99.99,WeatherLink 5.4,2013-10-23 05:00:00,
2013-10-23 01:30:00,42.4,-99.9,-100.00,West,270,2.0,7.0,-999,0.00,,,-99.99,WeatherLink 5.4,2013-10-23 05:30:00,
2013-10-23 02:00:00,41.8,-99.9,-100.00,WNW,292,1.0,7.0,-999,0.00,,,-99.99,WeatherLink 5.4,2013-10-23 06:00:00,
2013-10-23 02:30:00,41.0,-99.9,-100.00,West,270,0.0,5.0,-999,0.00,,,-99.99,WeatherLink 5.4,2013-10-23 06:30:00,
2013-10-23 03:00:00,40.2,-99.9,-100.00,West,270,0.0,4.0,-999,0.00,,,-99.99,WeatherLink 5.4,2013-10-23 07:00:00,
2013-10-23 03:30:00,39.6,-99.9,-100.00,West,270,0.0,4.0,-999,0.00,,,-99.99,WeatherLink 5.4,2013-10-23 07:30:00,
2013-10-23 04:00:00,39.1,-99.9,-100.00,West,270,0.0,4.0,-999,0.00,,,-99.99,WeatherLink 5.4,2013-10-23 08:00:00,
2013-10-23 04:30:00,38.1,-99.9,-100.00,North,-999,0.0,0.0,-999,0.00,,,-99.99,WeatherLink 5.4,2013-10-23 08:30:00,
2013-10-23 05:00:00,37.1,-99.9,-100.00,North,-999,0.0,0.0,-999,0.00,,,-99.99,WeatherLink 5.4,2013-10-23 09:00:00,
2013-10-23 05:30:00,36.8,-99.9,-100.00,North,-999,0.0,0.0,-999,0.00,,,-99.99,WeatherLink 5.4,2013-10-23 09:30:00,
2013-10-23 06:00:00,36.0,-99.9,-100.00,North,-999,0.0,0.0,-999,0.00,,,-99.99,WeatherLink 5.4,2013-10-23 10:00:00,
2013-10-23 06:30:00,35.7,-99.9,-100.00,North,-999,0.0,0.0,-999,0.00,,,-99.99,WeatherLink 5.4,2013-10-23 10:30:00,
2013-10-23 07:03:00,36.0,-99.9,-100.00,North,-999,0.0,0.0,-999,0.00,,,-99.99,WeatherLink 5.4,2013-10-23 11:03:00,
2013-10-23 07:33:00,36.5,-99.9,-100.00,North,-999,0.0,0.0,-999,0.00,,,-99.99,WeatherLink 5.4,2013-10-23 11:33:00,
2013-10-23 08:30:00,36.5,-99.9,-100.00,West,270,0.0,4.0,-999,0.00,,,-99.99,WeatherLink 5.4,2013-10-23 12:30:00,
2013-10-23 09:03:00,37.1,-99.9,-100.00,North,-999,0.0,0.0,-999,0.00,,,-99.99,WeatherLink 5.4,2013-10-23 13:03:00,
2013-10-23 09:33:00,36.7,-99.9,-100.00,North,-999,0.0,0.0,-999,0.03,,,-99.99,WeatherLink 5.4,2013-10-23 13:33:00,
2013-10-23 10:03:00,36.7,-99.9,-100.00,North,-999,0.0,0.0,-999,0.03,,,-99.99,WeatherLink 5.4,2013-10-23 14:03:00,
2013-10-23 10:33:00,36.7,-99.9,-100.00,West,270,0.0,2.0,-999,0.04,,,-99.99,WeatherLink 5.4,2013-10-23 14:33:00,
2013-10-23 11:03:00,37.0,-99.9,-100.00,WSW,247,1.0,6.0,-999,0.04,,,-99.99,WeatherLink 5.4,2013-10-23 15:03:00,
2013-10-23 11:33:00,37.9,-99.9,-100.00,West,270,1.0,4.0,-999,0.02,,,-99.99,WeatherLink 5.4,2013-10-23 15:33:00,
2013-10-23 12:03:00,38.6,-99.9,-100.00,West,270,1.0,5.0,-999,0.01,,,-99.99,WeatherLink 5.4,2013-10-23 16:03:00,
2013-10-23 12:33:00,39.5,-99.9,-100.00,West,270,1.0,4.0,-999,0.00,,,-99.99,WeatherLink 5.4,2013-10-23 16:33:00,
2013-10-23 13:03:00,41.3,-99.9,-100.00,WSW,247,0.0,4.0,-999,0.00,,,-99.99,WeatherLink 5.4,2013-10-23 17:03:00,
2013-10-23 13:33:00,41.0,-99.9,-100.00,WSW,247,0.0,5.0,-999,0.00,,,-99.99,WeatherLink 5.4,2013-10-23 17:33:00,
2013-10-23 14:03:00,42.4,-99.9,-100.00,North,0,1.0,11.0,-999,0.00,,,-99.99,WeatherLink 5.4,2013-10-23 18:03:00,
2013-10-23 14:33:00,43.1,-99.9,-100.00,NNW,337,2.0,11.0,-999,0.00,,,-99.99,WeatherLink 5.4,2013-10-23 18:33:00,
2013-10-23 15:03:00,44.8,-99.9,-100.00,NW,315,2.0,11.0,-999,0.00,,,-99.99,WeatherLink 5.4,2013-10-23 19:03:00,
2013-10-23 15:33:00,45.2,-99.9,-100.00,North,0,3.0,11.0,-999,0.00,,,-99.99,WeatherLink 5.4,2013-10-23 19:33:00,
2013-10-23 16:03:00,45.1,-99.9,-100.00,NW,315,4.0,13.0,-999,0.00,,,-99.99,WeatherLink 5.4,2013-10-23 20:03:00,
2013-10-23 16:33:00,44.9,-99.9,-100.00,NNW,337,4.0,12.0,-999,0.00,,,-99.99,WeatherLink 5.4,2013-10-23 20:33:00,
2013-10-23 17:03:00,43.4,-99.9,-100.00,NW,315,4.0,13.0,-999,0.00,,,-99.99,WeatherLink 5.4,2013-10-23 21:03:00,
2013-10-23 17:33:00,43.1,-99.9,-100.00,NNW,337,2.0,8.0,-999,0.00,,,-99.99,WeatherLink 5.4,2013-10-23 21:33:00,
2013-10-23 18:03:00,42.6,-99.9,-100.00,NW,315,1.0,7.0,-999,0.00,,,-99.99,WeatherLink 5.4,2013-10-23 22:03:00,
2013-10-23 18:33:00,40.3,-99.9,-100.00,West,270,3.0,12.0,-999,0.00,,,-99.99,WeatherLink 5.4,2013-10-23 22:33:00,
2013-10-23 19:03:00,38.4,-99.9,-100.00,WSW,247,0.0,4.0,-999,0.00,,,-99.99,WeatherLink 5.4,2013-10-23 23:03:00,
2013-10-23 19:33:00,37.7,-99.9,-100.00,West,270,1.0,8.0,-999,0.00,,,-99.99,WeatherLink 5.4,2013-10-23 23:33:00,
2013-10-23 20:03:00,36.6,-99.9,-100.00,West,270,0.0,4.0,-999,0.01,,,-99.99,WeatherLink 5.4,2013-10-24 00:03:00,
2013-10-23 20:33:00,37.4,-99.9,-100.00,West,270,1.0,7.0,-999,0.01,,,-99.99,WeatherLink 5.4,2013-10-24 00:33:00,
2013-10-23 21:30:00,36.5,-99.9,-100.00,North,-999,0.0,0.0,-999,0.00,,,-99.99,WeatherLink 5.4,2013-10-24 01:30:00,
2013-10-23 22:00:00,36.1,-99.9,-100.00,NNE,22,0.0,6.0,-999,0.00,,,-99.99,WeatherLink 5.4,2013-10-24 02:00:00,
2013-10-23 22:30:00,35.4,-99.9,-100.00,WNW,292,1.0,7.0,-999,0.01,,,-99.99,WeatherLink 5.4,2013-10-24 02:30:00,
2013-10-23 23:00:00,34.1,-99.9,-100.00,West,270,0.0,5.0,-999,0.04,,,-99.99,WeatherLink 5.4,2013-10-24 03:00:00,
2013-10-23 23:30:00,33.0,-99.9,-100.00,West,270,1.0,8.0,-999,0.04,,,-99.99,WeatherLink 5.4,2013-10-24 03:30:00,